owner,sensor,date,latitude,longitude,vertical_datum,wind_speed,wind_to_direction,wind_speed_of_gust,qcFlag 
TCOON,ioos:station:TCOON:068:1,2009-12-01T00:00:00Z,27.2970,-97.4049,0.0,6.9,341.0,7.6,'11111222,11111222,11111222' 
TCOON,ioos:station:TCOON:068:1,2009-12-01T01:00:00Z,27.2970,-97.4049,0.0,7.0,350.0,8.5,'11111222,11111222,11111222' 
TCOON,ioos:station:TCOON:068:1,2009-12-01T03:00:00Z,27.2970,-97.4049,0.0,6.0,321.0,7.1,'11111222,11111222,11111222' 
TCOON,ioos:station:TCOON:068:1,2009-12-01T04:00:00Z,27.2970,-97.4049,0.0,7.7,320.0,8.6,'11111222,11111222,11111222' 
TCOON,ioos:station:TCOON:068:1,2009-12-01T05:00:00Z,27.2970,-97.4049,0.0,8.5,341.0,10.6,'11111222,11111222,11111222' 
TCOON,ioos:station:TCOON:068:1,2009-12-01T06:00:00Z,27.2970,-97.4049,0.0,8.6,350.0,10.0,'11111222,11111222,11111222' 
TCOON,ioos:station:TCOON:068:1,2009-12-01T07:00:00Z,27.2970,-97.4049,0.0,6.6,337.0,7.4,'11111222,11111222,11111222' 
TCOON,ioos:station:TCOON:068:1,2009-12-01T08:00:00Z,27.2970,-97.4049,0.0,5.4,350.0,6.4,'11111222,11111222,11111222' 
TCOON,ioos:station:TCOON:068:1,2009-12-01T09:00:00Z,27.2970,-97.4049,0.0,6.9,10.0,8.4,'11111222,11111222,11111222' 
TCOON,ioos:station:TCOON:068:1,2009-12-01T10:00:00Z,27.2970,-97.4049,0.0,4.7,323.0,5.3,'11111222,11111222,11111222' 
TCOON,ioos:station:TCOON:068:1,2009-12-01T11:00:00Z,27.2970,-97.4049,0.0,7.0,300.0,8.0,'11111222,11111222,11111222' 
TCOON,ioos:station:TCOON:068:1,2009-12-01T12:00:00Z,27.2970,-97.4049,0.0,4.9,347.0,5.7,'11111222,11111222,11111222' 
TCOON,ioos:station:TCOON:068:1,2009-12-01T13:00:00Z,27.2970,-97.4049,0.0,4.2,332.0,4.8,'11111222,11111222,11111222' 
TCOON,ioos:station:TCOON:068:1,2009-12-01T15:00:00Z,27.2970,-97.4049,0.0,7.2,288.0,11.2,'11111222,11111222,11111222' 
TCOON,ioos:station:TCOON:068:1,2009-12-01T16:00:00Z,27.2970,-97.4049,0.0,6.0,293.0,7.0,'11111222,11111222,11111222' 
TCOON,ioos:station:TCOON:068:1,2009-12-01T17:00:00Z,27.2970,-97.4049,0.0,7.6,293.0,8.4,'11111222,11111222,11111222' 
TCOON,ioos:station:TCOON:068:1,2009-12-01T18:00:00Z,27.2970,-97.4049,0.0,7.3,285.0,8.3,'11111222,11111222,11111222' 
TCOON,ioos:station:TCOON:068:1,2009-12-01T19:00:00Z,27.2970,-97.4049,0.0,9.7,286.0,11.0,'11111222,11111222,11111222' 
TCOON,ioos:station:TCOON:068:1,2009-12-01T20:00:00Z,27.2970,-97.4049,0.0,12.5,301.0,14.5,'11111222,11111222,11111222' 
TCOON,ioos:station:TCOON:068:1,2009-12-01T21:00:00Z,27.2970,-97.4049,0.0,9.7,310.0,11.3,'11111222,11111222,11111222' 
TCOON,ioos:station:TCOON:068:1,2009-12-01T22:00:00Z,27.2970,-97.4049,0.0,11.2,309.0,13.7,'11111222,11111222,11111222' 
TCOON,ioos:station:TCOON:068:1,2009-12-01T23:00:00Z,27.2970,-97.4049,0.0,8.8,318.0,10.3,'11111222,11111222,11111222' 
TCOON,ioos:station:TCOON:068:1,2009-12-02T00:00:00Z,27.2970,-97.4049,0.0,8.3,297.0,9.6,'11111222,11111222,11111222' 
TCOON,ioos:station:TCOON:068:1,2009-12-02T01:00:00Z,27.2970,-97.4049,0.0,7.3,311.0,8.3,'11111222,11111222,11111222' 
TCOON,ioos:station:TCOON:068:1,2009-12-02T02:00:00Z,27.2970,-97.4049,0.0,8.4,308.0,9.9,'11111222,11111222,11111222' 
TCOON,ioos:station:TCOON:068:1,2009-12-02T03:00:00Z,27.2970,-97.4049,0.0,6.6,300.0,8.1,'11111222,11111222,11111222' 
TCOON,ioos:station:TCOON:068:1,2009-12-02T04:00:00Z,27.2970,-97.4049,0.0,5.0,299.0,5.9,'11111222,11111222,11111222' 
TCOON,ioos:station:TCOON:068:1,2009-12-02T05:00:00Z,27.2970,-97.4049,0.0,4.4,292.0,5.3,'11111222,11111222,11111222' 
TCOON,ioos:station:TCOON:068:1,2009-12-02T06:00:00Z,27.2970,-97.4049,0.0,4.3,270.0,5.0,'11111222,11111222,11111222' 
TCOON,ioos:station:TCOON:068:1,2009-12-02T07:00:00Z,27.2970,-97.4049,0.0,4.7,270.0,5.8,'11111222,11111222,11111222' 
TCOON,ioos:station:TCOON:068:1,2009-12-02T08:00:00Z,27.2970,-97.4049,0.0,4.9,274.0,5.8,'11111222,11111222,11111222' 
TCOON,ioos:station:TCOON:068:1,2009-12-02T09:00:00Z,27.2970,-97.4049,0.0,5.8,268.0,6.6,'11111222,11111222,11111222' 
TCOON,ioos:station:TCOON:068:1,2009-12-02T10:00:00Z,27.2970,-97.4049,0.0,5.5,269.0,5.9,'11111222,11111222,11111222' 
TCOON,ioos:station:TCOON:068:1,2009-12-02T11:00:00Z,27.2970,-97.4049,0.0,5.3,250.0,6.2,'11111222,11111222,11111222' 
TCOON,ioos:station:TCOON:068:1,2009-12-02T12:00:00Z,27.2970,-97.4049,0.0,4.1,241.0,4.8,'11111222,11111222,11111222' 
TCOON,ioos:station:TCOON:068:1,2009-12-02T13:00:00Z,27.2970,-97.4049,0.0,5.0,266.0,5.8,'11111222,11111222,11111222' 
TCOON,ioos:station:TCOON:068:1,2009-12-02T14:00:00Z,27.2970,-97.4049,0.0,4.0,276.0,4.6,'11111222,11111222,11111222' 
TCOON,ioos:station:TCOON:068:1,2009-12-02T15:00:00Z,27.2970,-97.4049,0.0,3.9,250.0,4.8,'11111222,11111222,11111222' 
TCOON,ioos:station:TCOON:068:1,2009-12-02T16:00:00Z,27.2970,-97.4049,0.0,3.9,270.0,4.3,'11111222,11111222,11111222' 
TCOON,ioos:station:TCOON:068:1,2009-12-02T17:00:00Z,27.2970,-97.4049,0.0,5.4,256.0,6.0,'11111222,11111222,11111222' 
TCOON,ioos:station:TCOON:068:1,2009-12-02T18:00:00Z,27.2970,-97.4049,0.0,3.5,239.0,4.5,'11111222,11111222,11111222' 
TCOON,ioos:station:TCOON:068:1,2009-12-02T19:00:00Z,27.2970,-97.4049,0.0,7.3,300.0,8.7,'11111222,11111222,11111222' 
TCOON,ioos:station:TCOON:068:1,2009-12-02T20:00:00Z,27.2970,-97.4049,0.0,9.5,308.0,10.6,'11111222,11111222,11111222' 
TCOON,ioos:station:TCOON:068:1,2009-12-02T21:00:00Z,27.2970,-97.4049,0.0,10.2,310.0,12.1,'11111222,11111222,11111222' 
TCOON,ioos:station:TCOON:068:1,2009-12-02T22:00:00Z,27.2970,-97.4049,0.0,9.7,332.0,12.1,'11111222,11111222,11111222' 
TCOON,ioos:station:TCOON:068:1,2009-12-02T23:00:00Z,27.2970,-97.4049,0.0,9.1,326.0,10.3,'11111222,11111222,11111222' 
TCOON,ioos:station:TCOON:068:1,2009-12-03T00:00:00Z,27.2970,-97.4049,0.0,4.7,317.0,5.8,'11111222,11111222,11111222' 
TCOON,ioos:station:TCOON:068:1,2009-12-03T01:00:00Z,27.2970,-97.4049,0.0,5.8,325.0,6.7,'11111222,11111222,11111222' 
TCOON,ioos:station:TCOON:068:1,2009-12-03T02:00:00Z,27.2970,-97.4049,0.0,5.4,333.0,6.4,'11111222,11111222,11111222' 
TCOON,ioos:station:TCOON:068:1,2009-12-03T03:00:00Z,27.2970,-97.4049,0.0,6.7,2.0,12.1,'11111222,11111222,11111222' 
TCOON,ioos:station:TCOON:068:1,2009-12-03T04:00:00Z,27.2970,-97.4049,0.0,9.4,19.0,11.9,'11111222,11111222,11111222' 
TCOON,ioos:station:TCOON:068:1,2009-12-03T05:00:00Z,27.2970,-97.4049,0.0,7.9,22.0,9.8,'11111222,11111222,11111222' 
TCOON,ioos:station:TCOON:068:1,2009-12-03T06:00:00Z,27.2970,-97.4049,0.0,8.9,6.0,11.2,'11111222,11111222,11111222' 
TCOON,ioos:station:TCOON:068:1,2009-12-03T07:00:00Z,27.2970,-97.4049,0.0,5.1,333.0,5.8,'11111222,11111222,11111222' 
TCOON,ioos:station:TCOON:068:1,2009-12-03T09:00:00Z,27.2970,-97.4049,0.0,6.0,315.0,6.8,'11111222,11111222,11111222' 
TCOON,ioos:station:TCOON:068:1,2009-12-03T10:00:00Z,27.2970,-97.4049,0.0,6.2,322.0,7.1,'11111222,11111222,11111222' 
TCOON,ioos:station:TCOON:068:1,2009-12-03T12:00:00Z,27.2970,-97.4049,0.0,6.4,340.0,7.4,'11111222,11111222,11111222' 
TCOON,ioos:station:TCOON:068:1,2009-12-03T13:00:00Z,27.2970,-97.4049,0.0,6.3,346.0,7.3,'11111222,11111222,11111222' 
TCOON,ioos:station:TCOON:068:1,2009-12-03T14:00:00Z,27.2970,-97.4049,0.0,6.7,354.0,7.3,'11111222,11111222,11111222' 
TCOON,ioos:station:TCOON:068:1,2009-12-03T15:00:00Z,27.2970,-97.4049,0.0,7.7,4.0,9.1,'11111222,11111222,11111222' 
TCOON,ioos:station:TCOON:068:1,2009-12-03T16:00:00Z,27.2970,-97.4049,0.0,8.0,360.0,9.3,'11111222,11144222,11111222' 
TCOON,ioos:station:TCOON:068:1,2009-12-03T17:00:00Z,27.2970,-97.4049,0.0,5.1,360.0,5.9,'11111222,11144222,11111222' 
TCOON,ioos:station:TCOON:068:1,2009-12-03T18:00:00Z,27.2970,-97.4049,0.0,4.8,358.0,5.5,'11111222,11111222,11111222' 
TCOON,ioos:station:TCOON:068:1,2009-12-03T19:00:00Z,27.2970,-97.4049,0.0,4.4,359.0,5.1,'11111222,11111222,11111222' 
TCOON,ioos:station:TCOON:068:1,2009-12-03T20:00:00Z,27.2970,-97.4049,0.0,5.5,359.0,6.8,'11111222,11111222,11111222' 
TCOON,ioos:station:TCOON:068:1,2009-12-03T21:00:00Z,27.2970,-97.4049,0.0,4.8,355.0,5.6,'11111222,11111222,11111222' 
TCOON,ioos:station:TCOON:068:1,2009-12-04T15:00:00Z,27.2970,-97.4049,0.0,11.7,334.0,14.0,'11111222,11111222,11111222' 
TCOON,ioos:station:TCOON:068:1,2009-12-04T16:00:00Z,27.2970,-97.4049,0.0,11.6,330.0,13.8,'11111222,11111222,11111222' 
TCOON,ioos:station:TCOON:068:1,2009-12-04T17:00:00Z,27.2970,-97.4049,0.0,11.5,324.0,13.6,'11111222,11111222,11111222' 
TCOON,ioos:station:TCOON:068:1,2009-12-04T18:00:00Z,27.2970,-97.4049,0.0,11.9,332.0,15.3,'11111222,11111222,11111222' 
TCOON,ioos:station:TCOON:068:1,2009-12-04T19:00:00Z,27.2970,-97.4049,0.0,11.6,334.0,14.1,'11111222,11111222,11111222' 
TCOON,ioos:station:TCOON:068:1,2009-12-04T21:00:00Z,27.2970,-97.4049,0.0,10.4,331.0,12.6,'11111222,11111222,11111222' 
TCOON,ioos:station:TCOON:068:1,2009-12-04T22:00:00Z,27.2970,-97.4049,0.0,9.6,330.0,10.9,'11111222,11111222,11111222' 
TCOON,ioos:station:TCOON:068:1,2009-12-04T23:00:00Z,27.2970,-97.4049,0.0,10.1,330.0,12.5,'11111222,11111222,11111222' 
TCOON,ioos:station:TCOON:068:1,2009-12-05T00:00:00Z,27.2970,-97.4049,0.0,6.1,336.0,7.0,'11111222,11111222,11111222' 
TCOON,ioos:station:TCOON:068:1,2009-12-05T01:00:00Z,27.2970,-97.4049,0.0,5.3,349.0,6.4,'11111222,11111222,11111222' 
TCOON,ioos:station:TCOON:068:1,2009-12-05T02:00:00Z,27.2970,-97.4049,0.0,4.8,339.0,5.8,'11111222,11111222,11111222' 
TCOON,ioos:station:TCOON:068:1,2009-12-05T03:00:00Z,27.2970,-97.4049,0.0,6.1,340.0,7.0,'11111222,11111222,11111222' 
TCOON,ioos:station:TCOON:068:1,2009-12-05T04:00:00Z,27.2970,-97.4049,0.0,6.1,340.0,7.2,'11111222,11111222,11111222' 
TCOON,ioos:station:TCOON:068:1,2009-12-05T06:00:00Z,27.2970,-97.4049,0.0,5.2,334.0,6.1,'11111222,11111222,11111222' 
TCOON,ioos:station:TCOON:068:1,2009-12-05T08:00:00Z,27.2970,-97.4049,0.0,5.0,346.0,5.8,'11111222,11111222,11111222' 
TCOON,ioos:station:TCOON:068:1,2009-12-05T10:00:00Z,27.2970,-97.4049,0.0,3.9,348.0,7.3,'11111222,11111222,11111222' 
TCOON,ioos:station:TCOON:068:1,2009-12-05T11:00:00Z,27.2970,-97.4049,0.0,3.7,328.0,4.0,'11111222,11111222,11111222' 
TCOON,ioos:station:TCOON:068:1,2009-12-05T12:00:00Z,27.2970,-97.4049,0.0,3.9,343.0,4.4,'11111222,11111222,11111222' 
TCOON,ioos:station:TCOON:068:1,2009-12-05T13:00:00Z,27.2970,-97.4049,0.0,5.0,326.0,5.4,'11111222,11111222,11111222' 
TCOON,ioos:station:TCOON:068:1,2009-12-05T14:00:00Z,27.2970,-97.4049,0.0,5.2,311.0,6.0,'11111222,11111222,11111222' 
TCOON,ioos:station:TCOON:068:1,2009-12-05T15:00:00Z,27.2970,-97.4049,0.0,4.2,322.0,4.6,'11111222,11111222,11111222' 
TCOON,ioos:station:TCOON:068:1,2009-12-05T16:00:00Z,27.2970,-97.4049,0.0,4.4,351.0,5.1,'11111222,11111222,11111222' 
TCOON,ioos:station:TCOON:068:1,2009-12-05T17:00:00Z,27.2970,-97.4049,0.0,3.9,357.0,4.3,'11111222,11111222,11111222' 
TCOON,ioos:station:TCOON:068:1,2009-12-05T18:00:00Z,27.2970,-97.4049,0.0,3.2,353.0,3.6,'11111222,11111222,11111222' 
TCOON,ioos:station:TCOON:068:1,2009-12-05T19:00:00Z,27.2970,-97.4049,0.0,3.4,350.0,3.8,'11111222,11111222,11111222' 
TCOON,ioos:station:TCOON:068:1,2009-12-05T20:00:00Z,27.2970,-97.4049,0.0,4.0,360.0,4.3,'11111222,11144222,11111222' 
TCOON,ioos:station:TCOON:068:1,2009-12-21T21:00:00Z,27.2970,-97.4049,0.0,6.0,121.0,7.2,'11111222,11111222,11111222' 
TCOON,ioos:station:TCOON:068:1,2009-12-22T02:00:00Z,27.2970,-97.4049,0.0,4.6,125.0,5.6,'11111222,11111222,11111222' 
TCOON,ioos:station:TCOON:068:1,2009-12-22T03:00:00Z,27.2970,-97.4049,0.0,4.1,125.0,5.0,'11111222,11111222,11111222' 
TCOON,ioos:station:TCOON:068:1,2009-12-22T06:00:00Z,27.2970,-97.4049,0.0,3.7,136.0,4.2,'11111222,11111222,11111222' 
TCOON,ioos:station:TCOON:068:1,2009-12-22T08:00:00Z,27.2970,-97.4049,0.0,5.4,152.0,6.0,'11111222,11111222,11111222' 
TCOON,ioos:station:TCOON:068:1,2009-12-22T09:00:00Z,27.2970,-97.4049,0.0,4.7,156.0,5.6,'11111222,11111222,11111222' 
TCOON,ioos:station:TCOON:068:1,2009-12-22T10:00:00Z,27.2970,-97.4049,0.0,4.2,136.0,4.9,'11111222,11111222,11111222' 
TCOON,ioos:station:TCOON:068:1,2009-12-22T11:00:00Z,27.2970,-97.4049,0.0,5.0,142.0,5.7,'11111222,11111222,11111222' 
TCOON,ioos:station:TCOON:068:1,2009-12-22T12:00:00Z,27.2970,-97.4049,0.0,5.2,139.0,6.9,'11111222,11111222,11111222' 
TCOON,ioos:station:TCOON:068:1,2009-12-22T13:00:00Z,27.2970,-97.4049,0.0,6.3,145.0,7.5,'11111222,11111222,11111222' 
TCOON,ioos:station:TCOON:068:1,2009-12-22T14:00:00Z,27.2970,-97.4049,0.0,7.8,156.0,9.1,'11111222,11111222,11111222' 
TCOON,ioos:station:TCOON:068:1,2009-12-22T15:00:00Z,27.2970,-97.4049,0.0,7.8,156.0,9.2,'11111222,11111222,11111222' 
TCOON,ioos:station:TCOON:068:1,2009-12-22T16:00:00Z,27.2970,-97.4049,0.0,6.8,161.0,7.9,'11111222,11111222,11111222' 
TCOON,ioos:station:TCOON:068:1,2009-12-22T17:00:00Z,27.2970,-97.4049,0.0,4.8,164.0,5.7,'11111222,11111222,11111222' 
TCOON,ioos:station:TCOON:068:1,2009-12-22T18:00:00Z,27.2970,-97.4049,0.0,5.9,157.0,7.1,'11111222,11111222,11111222' 
TCOON,ioos:station:TCOON:068:1,2009-12-22T19:00:00Z,27.2970,-97.4049,0.0,8.0,144.0,9.6,'11111222,11111222,11111222' 
TCOON,ioos:station:TCOON:068:1,2009-12-22T20:00:00Z,27.2970,-97.4049,0.0,8.6,142.0,9.9,'11111222,11111222,11111222' 
TCOON,ioos:station:TCOON:068:1,2009-12-22T21:00:00Z,27.2970,-97.4049,0.0,8.8,147.0,11.1,'11111222,11111222,11111222' 
TCOON,ioos:station:TCOON:068:1,2009-12-22T22:00:00Z,27.2970,-97.4049,0.0,8.4,140.0,10.2,'11111222,11111222,11111222' 
TCOON,ioos:station:TCOON:068:1,2009-12-23T00:00:00Z,27.2970,-97.4049,0.0,6.0,138.0,7.8,'11111222,11111222,11111222' 
TCOON,ioos:station:TCOON:068:1,2009-12-23T01:00:00Z,27.2970,-97.4049,0.0,5.4,141.0,6.6,'11111222,11111222,11111222' 
TCOON,ioos:station:TCOON:068:1,2009-12-23T02:00:00Z,27.2970,-97.4049,0.0,6.0,139.0,7.3,'11111222,11111222,11111222' 
TCOON,ioos:station:TCOON:068:1,2009-12-23T03:00:00Z,27.2970,-97.4049,0.0,4.9,141.0,5.9,'11111222,11111222,11111222' 
TCOON,ioos:station:TCOON:068:1,2009-12-23T04:00:00Z,27.2970,-97.4049,0.0,3.9,138.0,4.9,'11111222,11111222,11111222' 
TCOON,ioos:station:TCOON:068:1,2009-12-23T05:00:00Z,27.2970,-97.4049,0.0,4.0,130.0,4.8,'11111222,11111222,11111222' 
TCOON,ioos:station:TCOON:068:1,2009-12-23T06:00:00Z,27.2970,-97.4049,0.0,5.3,134.0,6.3,'11111222,11111222,11111222' 
TCOON,ioos:station:TCOON:068:1,2009-12-23T07:00:00Z,27.2970,-97.4049,0.0,5.4,140.0,6.2,'11111222,11111222,11111222' 
TCOON,ioos:station:TCOON:068:1,2009-12-23T08:00:00Z,27.2970,-97.4049,0.0,6.0,155.0,7.2,'11111222,11111222,11111222' 
TCOON,ioos:station:TCOON:068:1,2009-12-23T09:00:00Z,27.2970,-97.4049,0.0,7.2,149.0,8.2,'11111222,11111222,11111222' 
TCOON,ioos:station:TCOON:068:1,2009-12-23T10:00:00Z,27.2970,-97.4049,0.0,6.5,158.0,7.9,'11111222,11111222,11111222' 
TCOON,ioos:station:TCOON:068:1,2009-12-23T11:00:00Z,27.2970,-97.4049,0.0,5.9,144.0,7.1,'11111222,11111222,11111222' 
TCOON,ioos:station:TCOON:068:1,2009-12-23T12:00:00Z,27.2970,-97.4049,0.0,3.3,163.0,3.9,'11111222,11111222,11111222' 
TCOON,ioos:station:TCOON:068:1,2009-12-23T13:00:00Z,27.2970,-97.4049,0.0,2.8,140.0,3.4,'11111222,11111222,11111222' 
TCOON,ioos:station:TCOON:068:1,2009-12-23T14:00:00Z,27.2970,-97.4049,0.0,3.4,142.0,3.7,'11111222,11111222,11111222' 
TCOON,ioos:station:TCOON:068:1,2009-12-23T15:00:00Z,27.2970,-97.4049,0.0,3.9,125.0,4.6,'11111222,11111222,11111222' 
TCOON,ioos:station:TCOON:068:1,2009-12-23T16:00:00Z,27.2970,-97.4049,0.0,4.3,133.0,5.2,'11111222,11111222,11111222' 
TCOON,ioos:station:TCOON:068:1,2009-12-23T17:00:00Z,27.2970,-97.4049,0.0,4.5,125.0,5.5,'11111222,11111222,11111222' 
TCOON,ioos:station:TCOON:068:1,2009-12-23T18:00:00Z,27.2970,-97.4049,0.0,5.3,117.0,6.4,'11111222,11111222,11111222' 
TCOON,ioos:station:TCOON:068:1,2009-12-23T19:00:00Z,27.2970,-97.4049,0.0,6.0,124.0,7.1,'11111222,11111222,11111222' 
TCOON,ioos:station:TCOON:068:1,2009-12-23T20:00:00Z,27.2970,-97.4049,0.0,7.1,123.0,9.0,'11111222,11111222,11111222' 
TCOON,ioos:station:TCOON:068:1,2009-12-23T21:00:00Z,27.2970,-97.4049,0.0,7.8,125.0,9.7,'11111222,11111222,11111222' 
TCOON,ioos:station:TCOON:068:1,2009-12-23T22:00:00Z,27.2970,-97.4049,0.0,7.4,129.0,10.7,'11111222,11111222,11111222' 
TCOON,ioos:station:TCOON:068:1,2009-12-23T23:00:00Z,27.2970,-97.4049,0.0,8.0,135.0,9.6,'11111222,11111222,11111222' 
TCOON,ioos:station:TCOON:068:1,2009-12-24T00:00:00Z,27.2970,-97.4049,0.0,7.6,131.0,9.3,'11111222,11111222,11111222' 
TCOON,ioos:station:TCOON:068:1,2009-12-24T01:00:00Z,27.2970,-97.4049,0.0,7.5,141.0,9.0,'11111222,11111222,11111222' 
TCOON,ioos:station:TCOON:068:1,2009-12-24T02:00:00Z,27.2970,-97.4049,0.0,6.0,147.0,7.1,'11111222,11111222,11111222' 
TCOON,ioos:station:TCOON:068:1,2009-12-24T03:00:00Z,27.2970,-97.4049,0.0,4.8,152.0,5.9,'11111222,11111222,11111222' 
TCOON,ioos:station:TCOON:068:1,2009-12-24T04:00:00Z,27.2970,-97.4049,0.0,3.4,120.0,4.0,'11111222,11111222,11111222' 
TCOON,ioos:station:TCOON:068:1,2009-12-24T05:00:00Z,27.2970,-97.4049,0.0,5.9,129.0,7.4,'11111222,11111222,11111222' 
TCOON,ioos:station:TCOON:068:1,2009-12-24T08:00:00Z,27.2970,-97.4049,0.0,7.0,277.0,8.3,'11111222,11111222,11111222' 
TCOON,ioos:station:TCOON:068:1,2009-12-24T09:00:00Z,27.2970,-97.4049,0.0,16.3,313.0,19.3,'11111222,11111222,11111222' 
TCOON,ioos:station:TCOON:068:1,2009-12-24T10:00:00Z,27.2970,-97.4049,0.0,12.2,314.0,14.6,'11111222,11111222,11111222' 
TCOON,ioos:station:TCOON:068:1,2009-12-24T11:00:00Z,27.2970,-97.4049,0.0,13.2,306.0,17.0,'11111222,11111222,11111222' 
TCOON,ioos:station:TCOON:068:1,2009-12-24T12:00:00Z,27.2970,-97.4049,0.0,9.4,311.0,10.8,'11111222,11111222,11111222' 
TCOON,ioos:station:TCOON:068:1,2009-12-24T13:00:00Z,27.2970,-97.4049,0.0,11.3,297.0,14.1,'11111222,11111222,11111222' 
TCOON,ioos:station:TCOON:068:1,2009-12-24T14:00:00Z,27.2970,-97.4049,0.0,9.3,296.0,11.7,'11111222,11111222,11111222' 
TCOON,ioos:station:TCOON:068:1,2009-12-24T15:00:00Z,27.2970,-97.4049,0.0,9.5,294.0,12.8,'11111222,11111222,11111222' 
TCOON,ioos:station:TCOON:068:1,2009-12-24T16:00:00Z,27.2970,-97.4049,0.0,12.0,292.0,15.4,'11111222,11111222,11111222' 
TCOON,ioos:station:TCOON:068:1,2009-12-24T17:00:00Z,27.2970,-97.4049,0.0,15.0,288.0,18.4,'11111222,11111222,11111222' 
TCOON,ioos:station:TCOON:068:1,2009-12-24T18:00:00Z,27.2970,-97.4049,0.0,15.1,289.0,19.5,'11111222,11111222,11111222' 
TCOON,ioos:station:TCOON:068:1,2009-12-24T19:00:00Z,27.2970,-97.4049,0.0,20.2,295.0,24.9,'11111222,11111222,11111222' 
TCOON,ioos:station:TCOON:068:1,2009-12-24T20:00:00Z,27.2970,-97.4049,0.0,16.5,276.0,19.6,'11111222,11111222,11111222' 
TCOON,ioos:station:TCOON:068:1,2009-12-24T21:00:00Z,27.2970,-97.4049,0.0,14.7,298.0,22.2,'11111222,11111222,11111222' 
TCOON,ioos:station:TCOON:068:1,2009-12-24T22:00:00Z,27.2970,-97.4049,0.0,12.2,293.0,15.8,'11111222,11111222,11111222' 
TCOON,ioos:station:TCOON:068:1,2009-12-24T23:00:00Z,27.2970,-97.4049,0.0,11.1,300.0,13.1,'11111222,11111222,11111222' 
TCOON,ioos:station:TCOON:068:1,2009-12-25T00:00:00Z,27.2970,-97.4049,0.0,10.5,307.0,12.3,'11111222,11111222,11111222' 
TCOON,ioos:station:TCOON:068:1,2009-12-25T01:00:00Z,27.2970,-97.4049,0.0,8.8,313.0,10.6,'11111222,11111222,11111222' 
TCOON,ioos:station:TCOON:068:1,2009-12-25T02:00:00Z,27.2970,-97.4049,0.0,5.7,333.0,6.8,'11111222,11111222,11111222' 
TCOON,ioos:station:TCOON:068:1,2009-12-25T03:00:00Z,27.2970,-97.4049,0.0,9.0,335.0,10.8,'11111222,11111222,11111222' 
TCOON,ioos:station:TCOON:068:1,2009-12-25T04:00:00Z,27.2970,-97.4049,0.0,11.7,349.0,13.3,'11111222,11111222,11111222' 
TCOON,ioos:station:TCOON:068:1,2009-12-25T05:00:00Z,27.2970,-97.4049,0.0,10.5,333.0,25.0,'11111222,11111222,11111222' 
TCOON,ioos:station:TCOON:068:1,2009-12-25T06:00:00Z,27.2970,-97.4049,0.0,9.7,323.0,11.6,'11111222,11111222,11111222' 
TCOON,ioos:station:TCOON:068:1,2009-12-25T07:00:00Z,27.2970,-97.4049,0.0,8.2,315.0,9.6,'11111222,11111222,11111222' 
TCOON,ioos:station:TCOON:068:1,2009-12-25T08:00:00Z,27.2970,-97.4049,0.0,4.4,302.0,5.4,'11111222,11111222,11111222' 
TCOON,ioos:station:TCOON:068:1,2009-12-25T09:00:00Z,27.2970,-97.4049,0.0,6.2,308.0,7.2,'11111222,11111222,11111222' 
TCOON,ioos:station:TCOON:068:1,2009-12-25T10:00:00Z,27.2970,-97.4049,0.0,6.2,314.0,7.4,'11111222,11111222,11111222' 
TCOON,ioos:station:TCOON:068:1,2009-12-25T11:00:00Z,27.2970,-97.4049,0.0,3.7,289.0,4.8,'11111222,11111222,11111222' 
TCOON,ioos:station:TCOON:068:1,2009-12-25T12:00:00Z,27.2970,-97.4049,0.0,4.2,269.0,5.3,'11111222,11111222,11111222' 
TCOON,ioos:station:TCOON:068:1,2009-12-25T13:00:00Z,27.2970,-97.4049,0.0,5.5,282.0,6.6,'11111222,11111222,11111222' 
TCOON,ioos:station:TCOON:068:1,2009-12-25T14:00:00Z,27.2970,-97.4049,0.0,5.0,313.0,5.6,'11111222,11111222,11111222' 
TCOON,ioos:station:TCOON:068:1,2009-12-25T15:00:00Z,27.2970,-97.4049,0.0,4.6,336.0,5.8,'11111222,11111222,11111222' 
TCOON,ioos:station:TCOON:068:1,2009-12-25T16:00:00Z,27.2970,-97.4049,0.0,5.7,357.0,8.8,'11111222,11111222,11111222' 
TCOON,ioos:station:TCOON:068:1,2009-12-25T17:00:00Z,27.2970,-97.4049,0.0,4.9,358.0,6.2,'11111222,11111222,11111222' 
TCOON,ioos:station:TCOON:068:1,2009-12-25T18:00:00Z,27.2970,-97.4049,0.0,2.9,351.0,3.7,'11111222,11111222,11111222' 
TCOON,ioos:station:TCOON:068:1,2009-12-25T19:00:00Z,27.2970,-97.4049,0.0,1.5,12.0,2.0,'11111222,11111222,11111222' 
TCOON,ioos:station:TCOON:068:1,2009-12-25T20:00:00Z,27.2970,-97.4049,0.0,2.3,17.0,3.2,'11111222,11111222,11111222' 
TCOON,ioos:station:TCOON:068:1,2009-12-25T21:00:00Z,27.2970,-97.4049,0.0,3.4,65.0,4.1,'11111222,11111222,11111222' 
TCOON,ioos:station:TCOON:068:1,2009-12-25T22:00:00Z,27.2970,-97.4049,0.0,3.5,56.0,4.4,'11111222,11111222,11111222' 
TCOON,ioos:station:TCOON:068:1,2009-12-25T23:00:00Z,27.2970,-97.4049,0.0,3.2,44.0,3.9,'11111222,11111222,11111222' 
TCOON,ioos:station:TCOON:068:1,2009-12-26T00:00:00Z,27.2970,-97.4049,0.0,1.9,57.0,2.3,'11111222,11111222,11111222' 
TCOON,ioos:station:TCOON:068:1,2009-12-26T01:00:00Z,27.2970,-97.4049,0.0,2.4,20.0,3.0,'11111222,11111222,11111222' 
TCOON,ioos:station:TCOON:068:1,2009-12-26T02:00:00Z,27.2970,-97.4049,0.0,2.9,334.0,3.3,'11111222,11111222,11111222' 
TCOON,ioos:station:TCOON:068:1,2009-12-26T03:00:00Z,27.2970,-97.4049,0.0,4.4,317.0,4.8,'11111222,11111222,11111222' 
TCOON,ioos:station:TCOON:068:1,2009-12-26T04:00:00Z,27.2970,-97.4049,0.0,4.8,329.0,5.3,'11111222,11111222,11111222' 
TCOON,ioos:station:TCOON:068:1,2009-12-26T05:00:00Z,27.2970,-97.4049,0.0,5.3,344.0,5.8,'11111222,11111222,11111222' 
TCOON,ioos:station:TCOON:068:1,2009-12-26T06:00:00Z,27.2970,-97.4049,0.0,5.3,356.0,6.0,'11111222,11111222,11111222' 
TCOON,ioos:station:TCOON:068:1,2009-12-26T07:00:00Z,27.2970,-97.4049,0.0,5.0,354.0,5.4,'11111222,11111222,11111222' 
TCOON,ioos:station:TCOON:068:1,2009-12-26T08:00:00Z,27.2970,-97.4049,0.0,7.3,3.0,8.3,'11111222,11111222,11111222' 
TCOON,ioos:station:TCOON:068:1,2009-12-26T09:00:00Z,27.2970,-97.4049,0.0,7.0,10.0,7.6,'11111222,11111222,11111222' 
TCOON,ioos:station:TCOON:068:1,2009-12-26T10:00:00Z,27.2970,-97.4049,0.0,4.4,14.0,5.4,'11111222,11111222,11111222' 
TCOON,ioos:station:TCOON:068:1,2009-12-26T11:00:00Z,27.2970,-97.4049,0.0,4.5,12.0,5.3,'11111222,11111222,11111222' 
TCOON,ioos:station:TCOON:068:1,2009-12-26T12:00:00Z,27.2970,-97.4049,0.0,4.5,353.0,5.3,'11111222,11111222,11111222' 
TCOON,ioos:station:TCOON:068:1,2009-12-26T14:00:00Z,27.2970,-97.4049,0.0,5.6,2.0,6.9,'11111222,11111222,11111222' 
TCOON,ioos:station:TCOON:068:1,2009-12-26T15:00:00Z,27.2970,-97.4049,0.0,4.7,352.0,18.2,'11111222,11111222,11111222' 
TCOON,ioos:station:TCOON:068:1,2009-12-26T16:00:00Z,27.2970,-97.4049,0.0,6.6,2.0,7.6,'11111222,11111222,11111222' 
TCOON,ioos:station:TCOON:068:1,2009-12-26T17:00:00Z,27.2970,-97.4049,0.0,5.3,2.0,5.9,'11111222,11111222,11111222' 
TCOON,ioos:station:TCOON:068:1,2009-12-26T18:00:00Z,27.2970,-97.4049,0.0,6.9,360.0,7.8,'11111222,11144222,11111222' 
TCOON,ioos:station:TCOON:068:1,2009-12-26T19:00:00Z,27.2970,-97.4049,0.0,6.4,4.0,7.6,'11111222,11111222,11111222' 
TCOON,ioos:station:TCOON:068:1,2009-12-26T20:00:00Z,27.2970,-97.4049,0.0,6.1,358.0,6.9,'11111222,11111222,11111222' 
TCOON,ioos:station:TCOON:068:1,2009-12-26T21:00:00Z,27.2970,-97.4049,0.0,6.5,342.0,8.1,'11111222,11111222,11111222' 
TCOON,ioos:station:TCOON:068:1,2009-12-27T00:00:00Z,27.2970,-97.4049,0.0,5.5,3.0,7.0,'11111222,11111222,11111222' 